#timestamp,LO_Frequency,Hit,StdDev 
1627520415.1,286046996.6,P
1627520416.0,286046996.6,N
1627520435.8,286046999.3,N
1627520455.6,286046999.5,N
1627520475.5,286046999.2,N
1627520495.3,286046999.2,N
1627520515.2,286046999.1,N
1627520535.9,286046996.6,N
1627520555.7,286046996.6,N
1627520575.6,286046996.8,N
1627520595.4,286046997.2,N
1627520615.2,286046994.9,Y
1627520635.1,286046999.6,P
1627520636.0,286046999.6,N
1627520655.8,286046996.7,P
1627520675.7,286046997.6,N
1627520695.5,286046995.2,Y
1627520715.3,286046996.6,P
1627520735.2,286046999.5,N
1627520755.0,286046999.5,N
1627520755.9,286046999.5,N
1627520775.8,286046999.1,N
1627520795.6,286046997.0,N
1627520815.4,286046997.1,N
1627520835.3,286046997.4,N
1627520855.1,286046997.7,N
1627520875.9,286046997.6,N
1627520895.7,286046998.0,N
1627520915.5,286046995.2,Y
1627520935.4,286046996.6,P
1627520955.2,286046996.6,P
1627520975.0,286046997.0,P
1627520975.9,286046997.0,Y
1627520995.8,286047000.0,P
1627521015.6,286047000.4,N
1627521035.5,286047000.4,N
1627521055.3,286047000.8,N
1627521075.1,286047000.7,N
1627521095.9,286047000.4,N
1627521115.7,286047000.3,N
1627521135.5,286047002.8,N
1627521155.4,286047002.4,N
1627521175.2,286046999.9,N
1627521195.1,286047000.4,N
1627521196.0,286047000.4,N
1627521215.8,286047002.3,N
1627521235.6,286047002.3,N
1627521255.5,286047002.6,N
1627521275.3,286047002.6,N
1627521295.2,286047002.4,N
1627521315.9,286047002.3,N
1627521335.7,286047001.9,N
1627521355.6,286047002.6,N
1627521375.4,286047001.9,N
1627521395.2,286047001.7,N
1627521415.1,286046999.7,N
1627521416.0,286046999.7,N
1627521435.8,286047002.7,N
1627521455.7,286047002.6,N
1627521475.5,286047002.1,N
1627521495.3,286047001.9,N
1627521515.2,286047002.7,N
1627521535.9,286046999.9,N
1627521555.7,286047001.6,N
1627521575.6,286047002.7,N
1627521595.4,286047001.3,N
1627521615.2,286047002.2,N
1627521635.1,286047001.6,N
1627521636.0,286047001.6,N
1627521655.8,286047002.0,N
1627521675.7,286047004.4,Y
1627521695.5,286046998.2,P
1627521715.3,286046998.9,N
1627521735.2,286046999.6,N
1627521755.0,286046998.4,N
1627521755.9,286046998.4,N
1627521775.8,286046998.2,N
1627521795.6,286046998.7,N
1627521815.4,286047000.9,N
1627521835.3,286047001.1,N
1627521855.1,286046998.3,N
1627521875.9,286046998.6,N
1627521895.7,286046998.3,N
1627521915.5,286047000.3,N
1627521935.4,286047000.0,N
1627521955.2,286047000.7,N
1627521975.0,286047000.7,N
1627521975.9,286047000.7,N
1627521995.8,286047000.5,N
1627522015.6,286047000.0,N
1627522035.5,286047001.0,N
1627522055.3,286047000.7,N
1627522075.1,286047000.3,N
1627522095.9,286047000.2,N
1627522115.7,286047000.3,N
1627522135.6,286047000.0,N
1627522155.4,286047001.0,N
1627522175.2,286046998.2,N
1627522195.1,286047002.8,N
1627522196.0,286047002.8,N
1627522215.8,286047000.0,N
1627522235.6,286047000.9,N
1627522255.5,286047000.5,N
1627522275.3,286046999.7,N
1627522295.2,286046999.8,N
1627522315.9,286046999.8,N
1627522335.7,286047000.1,N
1627522355.6,286047001.0,N
1627522375.4,286046999.9,N
1627522395.2,286047000.4,N
1627522415.1,286047001.2,N
1627522416.0,286047001.2,N
1627522435.8,286047001.0,N
1627522455.7,286047000.0,N
1627522475.5,286047000.9,N
1627522495.3,286047000.6,N
1627522515.2,286047000.6,N
1627522535.0,286047000.0,N
1627522535.9,286047000.0,N
1627522555.7,286047000.4,N
1627522575.6,286047001.0,N
1627522595.4,286047002.8,Y
1627522615.3,286047000.3,P
1627522635.1,286047000.4,P
1627522636.0,286047000.4,P
1627522655.8,286047000.2,N
1627522675.7,286047001.1,Y
1627522695.5,286047001.2,P
1627522715.4,286046998.1,P
1627522735.2,286047000.4,N
1627522755.0,286047000.9,N
1627522755.9,286047000.9,N
1627522775.8,286047000.0,N
1627522795.6,286047000.6,N
1627522815.4,286047000.8,N
1627522835.3,286047000.8,N
1627522855.1,286047000.7,N
1627522875.9,286047001.1,N
1627522895.7,286046999.8,N
1627522915.5,286047001.1,N
1627522935.4,286046999.9,N
1627522955.2,286047000.1,N
1627522975.0,286047001.0,N
1627522975.9,286047001.0,N
1627522995.8,286047000.3,N
1627523015.6,286047001.1,N
1627523035.5,286047001.0,N
1627523055.3,286047000.3,N
1627523075.1,286047000.9,N
1627523095.9,286047000.5,N
1627523115.7,286046999.8,N
1627523135.5,286047000.1,N
1627523155.4,286047000.9,N
1627523175.2,286046999.9,N
1627523195.1,286047002.0,Y
1627523196.0,286047002.0,P
1627523215.8,286047002.6,P
1627523235.6,286047004.1,P
1627523255.5,286047004.3,Y
1627523275.3,286047001.4,P
1627523295.2,286047001.4,P
1627523315.9,286047001.5,P
1627523335.7,286047001.5,Y
1627523355.6,286047002.7,P
1627523375.4,286047000.1,N
1627523395.2,286046999.8,N
1627523415.1,286047002.1,N
1627523416.0,286047002.1,N
1627523435.8,286047002.3,N
1627523455.7,286047002.7,N
1627523475.5,286047002.7,N
1627523495.3,286047002.8,N
1627523515.2,286047002.3,N
1627523535.0,286047002.2,N
1627523535.9,286047002.2,N
1627523555.8,286047002.6,N
1627523575.6,286047002.1,N
1627523595.4,286047000.1,N
1627523615.3,286047002.8,N
1627523635.1,286047002.8,N
1627523655.8,286047000.1,N
1627523675.7,286047000.2,N
1627523695.5,286047001.9,N
1627523715.3,286047002.7,N
1627523735.2,286046999.8,N
1627523755.0,286047000.5,N
1627523755.9,286047000.5,N
1627523775.8,286046999.7,N
1627523795.6,286047002.1,N
1627523815.4,286047002.4,N
1627523835.3,286047000.3,N
1627523855.1,286047001.0,N
1627523875.8,286046998.1,N
1627523895.7,286046999.0,N
1627523915.5,286046998.2,N
1627523935.4,286046998.7,N
1627523955.2,286046999.3,N
1627523975.0,286046999.0,N
1627523975.9,286046999.0,N
1627523995.8,286046998.4,N
